Miscellaneous Local Product
Issued by NWS North Platte, NE

Home | Current Version | Previous Version | Graphics & Text | Print | Product List | Glossary On
Versions: 1 2 3 4 5 6 7 8 9 10 11 12 13 14 15 16 17 18 19 20 21 22 23 24 25 26 27 28 29 30 31 32 33 34 35 36 37 38 39 40 41 42 43 44 45 46 47 48 49 50
899
AXUS43 KLBF 272010
MISLBF


WESTERN AND NORTH CENTRAL NEBRASKA HOURLY WEATHER ROUNDUP
NATIONAL WEATHER SERVICE NORTH PLATTE NE
300 PM CDT THU APR 27 2017

NOTE: "FAIR" INDICATES FEW OR NO CLOUDS BELOW 12,000 FEET WITH NO
SIGNIFICANT WEATHER AND/OR OBSTRUCTIONS TO VISIBILITY.

NOTE: STATIONS NOT REPORTING VARIABLES SUCH AS SKY/WEATHER OR
PRESSURE ARE PROVIDED BY RAWS AND APRS NETWORKS AND ARE NOT UNDER
NATIONAL WEATHER SERVICE QUALITY CONTROL.

...OBSERVATIONS IN AND NEAR THE EASTERN PANHANDLE OF NEBRASKA...

CITY           SKY/WX    TMP DP  RH WIND       PRES   REMARKS
PINE RIDGE     CLOUDY    50  34  54 SE15G22   29.59F
CHADRON        CLOUDY    50  35  56 E13       29.56F
ALLIANCE       CLOUDY    48  38  68 SE16      29.54F
SIDNEY         CLOUDY    51  39  63 E13       29.54S
CRESCENT LAKE    N/A     50  35  56 SE9G20      N/A
$$

...OBSERVATIONS IN NORTHERN NEBRASKA AND FAR SOUTHERN SOUTH DAKOTA...

CITY           SKY/WX    TMP DP  RH WIND       PRES   REMARKS
WINNER         FAIR      49  32  52 VRB5      29.68F
VALENTINE      MOSUNNY   54  29  38 E12       29.63F
THEDFORD       LGT RAIN  49  37  63 SE8       29.64S
AINSWORTH      MOSUNNY   51  34  52 E7        29.65S
O`NEILL        SUNNY     49  31  51 CALM      29.69S
ORD            CLOUDY    51  34  52 SE7       29.66F
BROKEN BOW     CLOUDY    50  34  54 S10       29.65S
VALENTINE NWR    N/A     53  30  42 E8          N/A
HALSEY           N/A     50  34  55 SE5G14      N/A
BUTTE            N/A     46  32  58 NE3G12      N/A
CHAMBERS         N/A     54  37  52 W3          N/A
EWING            N/A     48  37  66 SW3         N/A
$$

...OBSERVATIONS IN SOUTHWEST NEBRASKA AND FAR NORTHEAST COLORADO...

CITY           SKY/WX    TMP DP  RH WIND       PRES   REMARKS
HOLYOKE        FAIR      59  36  41 SE12G23   29.52S
IMPERIAL       MOSUNNY   53  35  50 SE23G32   29.54F
OGALLALA       CLOUDY    55  37  49 SE14G21   29.56F
NORTH PLATTE   CLOUDY    54  37  52 E18G26    29.58F
MCCOOK         PTSUNNY   53  36  52 E20G25    29.58F
LEXINGTON      CLOUDY    50  37  59 SE12      29.64S
STAPLETON        N/A     49  36  61 E6G13       N/A
GOTHENBURG       N/A     50  33  51 E12         N/A
CALLAWAY         N/A     50  38  64 SE13        N/A
$$

...OBSERVATIONS IN CENTRAL LINCOLN COUNTY AREA...

CITY           SKY/WX    TMP DP  RH WIND       PRES   REMARKS
N.P. AIRPORT   CLOUDY    54  37  52 E18G26    29.58F
N.P. DOWNTOWN    N/A     54  39  56 E12G20      N/A
N.P. SOUTHEAST   N/A     55  38  52 E8G17       N/A
N.P. HILLCREST   N/A     52  38  59 E20G26      N/A
$$

...SOME OBSERVATIONS FROM AROUND THE REGION...

CITY           SKY/WX    TMP DP  RH WIND       PRES   REMARKS
DENVER         CLOUDY    46  37  71 N13       29.53S
LIMON          CLOUDY    56  31  38 NE5       29.45F
ASPEN          CLOUDY    39  30  70 SE9       29.62F WCI  33
LARAMIE        CLOUDY    41  23  48 W7G17     29.54F
CASPER         LGT RAIN  38  36  92 N9        29.54R WCI  31
CHEYENNE       FLURRIES  34  32  92 NW6       29.56F WCI  29
SCOTTSBLUFF    CLOUDY    46  42  86 E6        29.55F
GRAND ISLAND   CLOUDY    56  31  38 E8        29.68F
OMAHA          MOSUNNY   53  35  50 VRB5      29.72S
SIOUX FALLS    MOSUNNY   47  33  58 NW12G21   29.68S
PIERRE         PTSUNNY   44  29  55 NE5       29.69F
RAPID CITY     CLOUDY    47  34  60 E13       29.62F
BISMARCK       SUNNY     51  26  37 NE10      29.71F
KANSAS CITY    PTSUNNY   61  37  41 VRB7      29.72S
HILL CITY      LGT RAIN  51  44  77 E16       29.59F
WICHITA        CLOUDY    60  42  51 S17       29.68S
DODGE CITY     CLOUDY    58  39  49 SE24G36   29.55F
OKLAHOMA CITY  CLOUDY    62  47  57 SE21G29   29.63F
DALLAS         MOSUNNY   73  48  41 SE18G24   29.67F
AMARILLO       CLOUDY    75  31  19 SW15G24   29.50F
$$




USA.gov is the U.S. government's official web portal to all federal, state and local government web resources and services.